Weather History for Sofia, Bulgaria

Change the Weather History Date:

Saturday, November 3, 2012

  Actual Average Record
Temperature  
Mean Temperature 55 °F -  
Max Temperature 69 °F 48 °F 75 °F (2008)
Min Temperature 41 °F 33 °F 23 °F (1997)
Degree Days  
Heating Degree Days 10    
Growing Degree Days 5 (Base 50)    
Moisture  
Dew Point 45 °F    
Average Humidity 80    
Maximum Humidity 100    
Minimum Humidity 40    
Precipitation  
Precipitation 0.00 in 0.07 in - ()
Sea Level Pressure  
Sea Level Pressure 30.05 in    
Wind  
Wind Speed 2 mph ()    
Max Wind Speed 9 mph    
Max Gust Speed -    
Visibility 6.1 miles    
Events Fog    
Averages and records for this station are not official NWS values.
T = Trace of Precipitation, MM = Missing Value Source: Averaged Metar Reports

Daily Weather History Graph

Daily Weather History Graph

Search for Another Location

Airport:

Trip Planner

Search our weather history database for the weather conditions in past years. The results will help you decide how hot, cold, wet, or windy it might be!

Date:

Astronomy

Nov. 03, 2012 Rise Set
Actual Time 7:03 AM EET 5:16 PM EET
Civil Twilight 6:33 AM EET 5:45 PM EET
Nautical Twilight 6:00 AM EET 6:19 PM EET
Astronomical Twilight 5:27 AM EET 6:52 PM EET
Moon 8:37 PM EET (11/3) 10:56 AM EET (11/3)
Length of Visible Light 11h 12m
Length of Day
10h 13m
Waning Gibbous, 82% of the Moon is Illuminated
Nov 3
Waning Gibbous
Nov 7
Last Quarter
Nov 14
New
Nov 20
First Quarter
Nov 28
Full

Hourly Weather History & Observations

Time (EET) Temp. Windchill Dew Point Humidity Pressure Visibility Wind Dir Wind Speed Gust Speed Precip Events Conditions
12:00 AM 48.2 °F - 48.2 °F 100% 29.95 in 3.1 mi Variable 4.5 mph - N/A   Mist
12:30 AM 50.0 °F - 50.0 °F 100% 29.98 in 2.5 mi Variable 2.2 mph - N/A   Mist
1:00 AM 46.4 °F - 46.4 °F 100% 29.98 in 3.1 mi Variable 2.2 mph - N/A   Mist
1:30 AM 48.2 °F - 46.4 °F 93% 29.98 in 4.3 mi SSW 2.2 mph - N/A   Unknown
2:00 AM 45 °F - 43 °F 90% 30.00 in 11 mi Calm Calm - -   Scattered Clouds
2:00 AM 46.4 °F 44.4 °F 44.6 °F 93% 29.98 in 2.5 mi ENE 4.5 mph - N/A   Mist
2:30 AM 46.4 °F - 46.4 °F 100% 29.98 in 1.4 mi Calm Calm - N/A   Mist
3:00 AM 42.8 °F - 42.8 °F 100% 30.01 in 0.9 mi Calm Calm - N/A   Mist
3:30 AM 42.8 °F - 42.8 °F 100% 30.01 in 3.1 mi Variable 2.2 mph - N/A   Partly Cloudy
4:00 AM 41.0 °F 38.1 °F 41.0 °F 100% 30.01 in 3.7 mi SSE 4.5 mph - N/A   Unknown
4:30 AM 41.0 °F 38.1 °F 41.0 °F 100% 30.01 in 2.5 mi East 4.5 mph - N/A   Mist
5:00 AM 44 °F - 42 °F 91% 30.05 in 11 mi Calm Calm - -   Scattered Clouds
5:00 AM 41.0 °F 38.1 °F 41.0 °F 100% 30.04 in 0.5 mi ESE 4.5 mph - N/A Fog Patches of Fog
5:30 AM 41.0 °F 38.1 °F 41.0 °F 100% 30.04 in 2.5 mi SE 4.5 mph - N/A Fog Patches of Fog
6:00 AM 39.2 °F - 39.2 °F 100% 30.04 in 0.7 mi SSW 2.2 mph - N/A   Partly Cloudy
6:30 AM 39.2 °F - 39.2 °F 100% 30.06 in 2.5 mi Calm Calm - N/A   Partly Cloudy
7:00 AM 39.2 °F - 39.2 °F 100% 30.06 in 3.7 mi Variable 2.2 mph - N/A   Scattered Clouds
7:30 AM 42.8 °F - 42.8 °F 100% 30.06 in 1.7 mi Variable 2.2 mph - N/A Fog Partly Cloudy
8:00 AM 46 °F - 42 °F 80% 30.10 in 17 mi Calm Calm - -  
8:00 AM 41.0 °F - 41.0 °F 100% 30.09 in 0.2 mi Variable 2.2 mph - N/A   Scattered Clouds
8:30 AM 42.8 °F - 42.8 °F 100% 30.09 in 0.2 mi Variable 2.2 mph - N/A Fog Patches of Fog
9:00 AM 44.6 °F - 44.6 °F 100% 30.09 in - East 2.2 mph - N/A Fog Patches of Fog
9:30 AM 51.8 °F - 51.8 °F 100% 30.09 in 4.3 mi Variable 2.2 mph - N/A Fog Unknown
10:00 AM 50.0 °F - 50.0 °F 100% 30.09 in 5.0 mi Variable 2.2 mph - N/A   Unknown
10:30 AM 51.8 °F - 50.0 °F 94% 30.09 in 5.0 mi Variable 2.2 mph - N/A   Unknown
11:00 AM 54 °F - 45 °F 64% 30.08 in 17 mi Calm Calm - -   Clear
11:00 AM 57.2 °F - 50.0 °F 77% 30.09 in - Variable 2.2 mph - N/A   Clear
11:30 AM 59.0 °F - 50.0 °F 72% 30.09 in - Variable 2.2 mph - N/A   Clear
12:00 PM 59.0 °F - 48.2 °F 67% 30.09 in - Variable 2.2 mph - N/A   Clear
12:30 PM 62.6 °F - 50.0 °F 63% 30.06 in - Variable 2.2 mph - N/A   Clear
1:00 PM 64.4 °F - 48.2 °F 56% 30.06 in - Variable 2.2 mph - N/A   Clear
1:30 PM 66.2 °F - 48.2 °F 52% 30.06 in - Variable 4.5 mph - N/A   Clear
2:00 PM 63 °F - 45 °F 40% 30.02 in 19 mi Calm Calm - -   Clear
2:00 PM 66.2 °F - 46.4 °F 49% 30.06 in 6.2 mi Variable 2.2 mph - N/A   Partly Cloudy
2:30 PM 66.2 °F - 44.6 °F 46% 30.04 in - Variable 2.2 mph - N/A   Clear
3:00 PM 69.8 °F - 46.4 °F 43% 30.04 in - Variable 2.2 mph - N/A   Clear
3:30 PM 68.0 °F - 46.4 °F 46% 30.04 in - Variable 2.2 mph - N/A   Clear
4:00 PM 68.0 °F - 46.4 °F 46% 30.04 in - Calm Calm - N/A   Clear
4:30 PM 66.2 °F - 46.4 °F 49% 30.04 in - Variable 2.2 mph - N/A   Clear
5:00 PM 60 °F - 47 °F 51% 30.01 in 19 mi Calm Calm - -   Clear
5:00 PM 66.2 °F - 48.2 °F 52% 30.04 in - Calm Calm - N/A   Clear
5:30 PM 64.4 °F - 46.4 °F 52% 30.04 in - Variable 2.2 mph - N/A   Clear
6:00 PM 57.2 °F - 48.2 °F 72% 30.04 in - South 4.5 mph - N/A   Clear
6:30 PM 55.4 °F - 46.4 °F 72% 30.06 in - South 2.2 mph - N/A   Clear
7:00 PM 57.2 °F - 48.2 °F 72% 30.06 in - SSW 6.7 mph - N/A   Clear
7:30 PM 51.8 °F - 48.2 °F 88% 30.06 in - ESE 6.7 mph - N/A   Clear
8:00 PM 55 °F - 42 °F 51% 30.06 in 16 mi SSE 6.7 mph - -   Clear
8:00 PM 50.0 °F - 44.6 °F 82% 30.06 in - ESE 8.9 mph - N/A   Clear
8:30 PM 50.0 °F - 46.4 °F 87% 30.06 in - SE 8.9 mph - N/A   Clear
9:00 PM 50.0 °F - 44.6 °F 82% 30.06 in - SE 6.7 mph - N/A   Clear
9:30 PM 50.0 °F - 44.6 °F 82% 30.06 in - ESE 4.5 mph - N/A   Clear
10:00 PM 48.2 °F - 44.6 °F 87% 30.09 in - Variable 2.2 mph - N/A   Clear
10:30 PM 50.0 °F - 46.4 °F 87% 30.06 in - Variable 2.2 mph - N/A   Clear
11:00 PM 48 °F - 43 °F 76% 30.09 in 14 mi Calm Calm - -   Clear
11:00 PM 50.0 °F - 46.4 °F 87% 30.06 in - Variable 2.2 mph - N/A   Clear
11:30 PM 50.0 °F - 46.4 °F 87% 30.06 in - Variable 2.2 mph - N/A   Clear